Tracking 32139 objects as of 16-Nov-2025
HD Live streaming from Space Station
objects crossing your sky now

STARLINK-35029

Track STARLINK-35029 now!
10-day predictions
STARLINK-35029 is classified as:


NORAD ID: 65445
Int'l Code: 2025-194M
Perigee: 555.1 km
Apogee: 558.1 km
Inclination: 97.6 °
Period: 95.6 minutes
Semi major axis: 6927 km
RCS: Unknown
Launch date: September 3, 2025
Source: United States (US)
Launch site: AIR FORCE WESTERN TEST RANGE (AFWTR)
Your satellite tracking list
Your tracking list is empty




NASA's NSSDC Master Catalog

Two Line Element Set (TLE):
1 65445U 25194M   25319.54904938  .00020382  00000-0  14120-2 0  9992
2 65445  97.6017 171.8946 0002105  71.9117 288.2338 15.05668525 12477
Source of the keplerian elements: AFSPC